Location: Blanot
(47.1713°N, 4.2340°E)
Time: 20:05:24
(UTC+00:00)

ATLAS 5 CENTAUR R/B - Pass Details

Date: 14 July 2020
Orbit: 273 x 14305 km, 60.7° (Epoch: 14 August)

Event Time Altitude Azimuth Distance (km) Brightness Sun altitude
Rises 02:42:43 0° 303° (WNW) 2,660 5.2 -10.9°
Reaches altitude 10° 02:44:14 10° 292° (WNW) 2,105 4.6 -10.7°
Maximum altitude 02:48:22 36° 224° (SW) 1,805 3.9 -10.2°
Drops below altitude 10° 03:00:54 10° 166° (SSE) 6,451 6.9 -8.8°
Sets 03:10:14 0° 161° (SSE) 9,710 7.9 -7.7°
